User: anonymous   Login
Location: Goettingen
(51.5300°N, 9.9433°E)
Time: 05:29:02
(UTC+02:00)
Language:

Hubble Space Telescope - Orbit

View from above orbital plane
View from above orbital plane
View from above satellite
View from above satellite

Ground track
Ground track

The orbit data is extracted from the following two-line orbital elements,

1 20580U 90037B   21289.56233521  .00001013  00000-0  50211-4 0  9991
2 20580  28.4711 343.6656 0002380 289.2485 186.6629 15.09782962529311
Epoch (UTC): 16 October 2021 13:29:45
Eccentricity: 0.0002380
inclination: 28.4711°
perigee height: 535 km
apogee height: 538 km
right ascension of ascending node: 343.6656°
argument of perigee: 289.2485°
revolutions per day: 15.09782962
mean anomaly at epoch: 186.6629°
orbit number at epoch: 52931

The dashed part of the orbit path shows where the satellite is in the earth's shadow,  

DLR